Location: Courçay
(47.2523°N, 0.8761°E)
Time: 00:21:10
(UTC+00:00)

Cosmos 1954 Rocket - Pass Details

Date: 18 November 2025
Orbit: 748 x 776 km, 74.0° (Epoch: 05 December)

Event Time Altitude Azimuth Distance (km) Brightness Sun altitude
Rises 18:05:44 0° 195° (SSW) 3,237 7.6 -18.1°
Reaches altitude 10° 18:08:07 10° 194° (SSW) 2,311 6.8 -18.5°
Maximum altitude 18:13:21 75° 109° (ESE) 799 3.9 -19.4°
Enters shadow 18:16:51 21° 27° (NNE) 1,659 5.4 -20.0°
